Location: Shenandoah County Park
(38.9356°N, 78.4524°W)
Time: 18:20:28
(UTC-05:00)

A-11 Canister half - Pass Details

Date: 19 December 2023
Orbit: 1526 x 1682 km, 47.3° (Epoch: 01 March)

Event Time Altitude Azimuth Distance (km) Brightness Sun altitude
Rises 20:09:10 0° 296° (WNW) 4,934 12.4 -37.0°
Reaches altitude 10° 20:12:23 10° 299° (WNW) 3,947 11.7 -37.6°
Enters shadow 20:21:21 67° 341° (NNW) 1,796 9.2 -39.4°
Maximum altitude 20:22:34 72° 24° (NNE) 1,742 - -39.6°
Drops below altitude 10° 20:32:34 10° 108° (ESE) 3,881 - -41.5°
Sets 20:35:41 0° 111° (ESE) 4,848 - -42.1°
